timestamp,surface_pressure_avg,surface_temp_avg,battery_voltage,lat,long
2017-09-25 00:00:00+00:00,271.2631,14.1,12.97,47.84626,-54.09684
2017-09-25 00:10:00+00:00,273.4231,14.1,12.97,47.84626,-54.09684
2017-09-25 00:20:00+00:00,277.0264,14.1,13.05,47.84626,-54.09684
2017-09-25 00:30:00+00:00,283.7131,14.09,13.05,47.84626,-54.09684
2017-09-25 00:40:00+00:00,289.248,14.1,13.05,47.84626,-54.09684
2017-09-25 00:50:00+00:00,290.8364,14.1,13.05,47.84626,-54.09684
2017-09-25 01:00:00+00:00,297.7614,14.1,12.97,47.84626,-54.09684
2017-09-25 01:10:00+00:00,303.428,14.1,12.97,47.84626,-54.09684
2017-09-25 01:20:00+00:00,307.698,14.1,12.97,47.84626,-54.09684
2017-09-25 01:30:00+00:00,309.9697,14.1,12.97,47.84626,-54.09684
2017-09-25 01:40:00+00:00,310.443,14.1,13.05,47.84626,-54.09684
2017-09-25 01:50:00+00:00,308.5347,14.1,13.05,47.84626,-54.09684
2017-09-25 02:00:00+00:00,311.6447,14.1,12.97,47.84626,-54.09684
2017-09-25 02:10:00+00:00,317.6431,14.1,12.89,47.84626,-54.09684
2017-09-25 02:20:00+00:00,320.468,14.1,12.97,47.84626,-54.09684
2017-09-25 02:30:00+00:00,316.5897,14.1,12.97,47.84626,-54.09684
2017-09-25 02:40:00+00:00,312.993,14.1,12.97,47.84626,-54.09684
2017-09-25 02:50:00+00:00,316.243,14.1,12.97,47.84626,-54.09684
2017-09-25 03:00:00+00:00,319.2496,14.1,12.97,47.84626,-54.09684
2017-09-25 03:10:00+00:00,312.0613,14.1,12.89,47.84626,-54.09684
2017-09-25 03:20:00+00:00,308.9348,14.1,12.97,47.84626,-54.09684
2017-09-25 03:30:00+00:00,310.7847,14.1,12.97,47.84626,-54.09684
2017-09-25 03:40:00+00:00,310.6013,14.1,12.97,47.84626,-54.09684
2017-09-25 03:50:00+00:00,310.7496,14.1,12.97,47.84626,-54.09684
2017-09-25 04:00:00+00:00,307.443,14.1,12.97,47.84626,-54.09684
2017-09-25 04:10:00+00:00,302.823,14.1,12.89,47.84626,-54.09684
2017-09-25 04:20:00+00:00,301.0597,14.1,12.97,47.84626,-54.09684
2017-09-25 04:30:00+00:00,303.9514,14.1,12.97,47.84626,-54.09684
2017-09-25 04:40:00+00:00,294.3147,14.0,12.97,47.84626,-54.09684
2017-09-25 04:50:00+00:00,277.0831,14.0,12.97,47.84626,-54.09684
2017-09-25 05:00:00+00:00,277.1697,14.0,12.89,47.84626,-54.09684
2017-09-25 05:10:00+00:00,281.5481,14.0,12.89,47.84626,-54.09684
2017-09-25 05:20:00+00:00,269.2464,13.9,12.97,47.84626,-54.09684
2017-09-25 05:30:00+00:00,256.2281,13.9,12.97,47.84626,-54.09684
2017-09-25 05:40:00+00:00,260.7331,13.9,12.97,47.84626,-54.09684
2017-09-25 05:50:00+00:00,261.8798,13.9,12.97,47.84626,-54.09684
2017-09-25 06:00:00+00:00,246.7397,13.9,12.89,47.84626,-54.09684
2017-09-25 06:10:00+00:00,234.2781,13.9,12.81,47.84626,-54.09684
2017-09-25 06:20:00+00:00,233.2697,13.9,12.89,47.84626,-54.09684
2017-09-25 06:30:00+00:00,226.1314,13.9,12.89,47.84626,-54.09684
2017-09-25 06:40:00+00:00,213.1481,13.9,12.97,47.84626,-54.09684
2017-09-25 06:50:00+00:00,207.3848,13.9,12.97,47.84626,-54.09684
2017-09-25 07:00:00+00:00,204.1714,13.9,12.89,47.84626,-54.09684
2017-09-25 07:10:00+00:00,196.7015,13.9,12.81,47.84626,-54.09684
2017-09-25 07:20:00+00:00,190.0514,13.9,12.89,47.84626,-54.09684
2017-09-25 07:30:00+00:00,190.8898,13.9,12.89,47.84626,-54.09684
2017-09-25 07:40:00+00:00,189.8698,13.9,12.97,47.84626,-54.09684
2017-09-25 07:50:00+00:00,182.6747,13.9,12.97,47.84626,-54.09684
2017-09-25 08:00:00+00:00,180.7548,13.89,12.89,47.84626,-54.09684
2017-09-25 08:10:00+00:00,180.6998,13.89,12.81,47.84626,-54.09684
2017-09-25 08:20:00+00:00,176.4715,13.89,12.89,47.84626,-54.09684
2017-09-25 08:30:00+00:00,177.7415,13.9,12.89,47.84626,-54.09684
2017-09-25 08:40:00+00:00,179.6698,13.9,12.89,47.84626,-54.09684
2017-09-25 08:50:00+00:00,183.0665,13.9,12.89,47.84626,-54.09684
2017-09-25 09:00:00+00:00,190.3665,13.9,12.89,47.84626,-54.09684
2017-09-25 09:10:00+00:00,198.5248,13.9,12.81,47.84626,-54.09684
2017-09-25 09:20:00+00:00,205.7665,13.9,12.89,47.84626,-54.09684
2017-09-25 09:30:00+00:00,210.6431,13.91,12.89,47.84626,-54.09684
2017-09-25 09:40:00+00:00,215.1831,13.93,12.89,47.84626,-54.09684
2017-09-25 09:50:00+00:00,217.7814,13.93,12.89,47.84626,-54.09684
2017-09-25 10:00:00+00:00,223.1281,13.94,12.89,47.84626,-54.09684
2017-09-25 10:10:00+00:00,227.6381,13.95,12.81,47.84626,-54.09684
2017-09-25 10:20:00+00:00,229.3314,13.9,12.89,47.84626,-54.09684
2017-09-25 10:30:00+00:00,235.4814,13.7,12.97,47.84626,-54.09684
2017-09-25 10:40:00+00:00,243.5681,13.8,12.97,47.84626,-54.09684
2017-09-25 10:50:00+00:00,244.5964,13.81,13.05,47.84626,-54.09684
2017-09-25 11:00:00+00:00,245.9498,13.87,12.97,47.84626,-54.09684
2017-09-25 11:10:00+00:00,249.4765,13.89,12.89,47.84626,-54.09684
2017-09-25 11:20:00+00:00,254.6364,13.9,13.05,47.84626,-54.09684
2017-09-25 11:30:00+00:00,259.2497,13.9,13.21,47.84626,-54.09684
2017-09-25 11:40:00+00:00,264.9064,13.9,13.29,47.84626,-54.09684
2017-09-25 11:50:00+00:00,273.6213,13.9,13.44,47.84626,-54.09684
2017-09-25 12:00:00+00:00,280.688,13.9,13.76,47.84626,-54.09684
2017-09-25 12:10:00+00:00,286.038,13.9,13.44,47.84626,-54.09684
2017-09-25 12:20:00+00:00,293.6397,13.9,13.6,47.84626,-54.09684
2017-09-25 12:30:00+00:00,306.4763,13.9,13.44,47.84626,-54.09684
2017-09-25 12:40:00+00:00,313.098,13.9,13.68,47.84626,-54.09684
2017-09-25 12:50:00+00:00,311.6697,13.9,13.68,47.84626,-54.09684
2017-09-25 13:00:00+00:00,314.8879,13.95,13.6,47.84626,-54.09684
2017-09-25 13:10:00+00:00,325.478,13.97,13.6,47.84626,-54.09684
2017-09-25 13:20:00+00:00,327.7563,13.97,13.53,47.84626,-54.09684
2017-09-25 13:30:00+00:00,328.0647,13.98,13.44,47.84626,-54.09684
2017-09-25 13:40:00+00:00,337.6779,14.0,13.44,47.84626,-54.09684
2017-09-25 13:50:00+00:00,345.653,14.0,13.53,47.84626,-54.09684
2017-09-25 14:00:00+00:00,339.7496,14.0,13.6,47.84626,-54.09684
2017-09-25 14:10:00+00:00,340.3763,14.0,13.53,47.84626,-54.09684
2017-09-25 14:20:00+00:00,346.5312,14.01,13.44,47.84626,-54.09684
2017-09-25 14:30:00+00:00,343.8179,14.0,13.53,47.84626,-54.09684
2017-09-25 14:40:00+00:00,337.4963,14.0,13.53,47.84626,-54.09684
2017-09-25 14:50:00+00:00,345.0114,14.0,13.44,47.84626,-54.09684
2017-09-25 15:00:00+00:00,350.043,14.0,13.53,47.84626,-54.09684
2017-09-25 15:10:00+00:00,346.0613,14.0,13.53,47.84626,-54.09684
2017-09-25 15:20:00+00:00,344.4614,14.0,13.44,47.84626,-54.09684
2017-09-25 15:30:00+00:00,347.4913,14.01,13.44,47.84626,-54.09684
2017-09-25 15:40:00+00:00,343.1479,14.02,13.53,47.84626,-54.09684
2017-09-25 15:50:00+00:00,338.8113,14.0,13.44,47.84626,-54.09684
2017-09-25 16:00:00+00:00,338.2897,14.02,13.44,47.84626,-54.09684
2017-09-25 16:10:00+00:00,335.858,14.06,13.68,47.84626,-54.09684
2017-09-25 16:20:00+00:00,330.0896,14.05,13.53,47.84626,-54.09684
2017-09-25 16:30:00+00:00,330.6163,14.04,13.44,47.84626,-54.09684
2017-09-25 16:40:00+00:00,328.3247,14.07,13.53,47.84626,-54.09684
2017-09-25 16:50:00+00:00,321.4613,14.08,13.53,47.84626,-54.09684
2017-09-25 17:00:00+00:00,316.8597,14.09,13.44,47.84626,-54.09684
2017-09-25 17:10:00+00:00,315.603,14.08,13.68,47.84626,-54.09684
2017-09-25 17:20:00+00:00,307.0931,14.1,13.84,47.84626,-54.09684
2017-09-25 17:30:00+00:00,295.288,14.1,13.44,47.84626,-54.09684
2017-09-25 17:40:00+00:00,290.303,14.1,13.6,47.84626,-54.09684
2017-09-25 17:50:00+00:00,284.2347,14.1,13.44,47.84626,-54.09684
2017-09-25 18:00:00+00:00,274.243,14.1,13.84,47.84626,-54.09684
2017-09-25 18:10:00+00:00,269.5547,14.11,13.84,47.84626,-54.09684
2017-09-25 18:20:00+00:00,267.7697,14.15,14.0,47.84626,-54.09684
2017-09-25 18:30:00+00:00,259.7231,14.18,13.92,47.84626,-54.09684
2017-09-25 18:40:00+00:00,248.6048,14.27,13.92,47.84626,-54.09684
2017-09-25 18:50:00+00:00,246.0114,14.33,13.84,47.84626,-54.09684
2017-09-25 19:00:00+00:00,239.8797,14.39,13.6,47.84626,-54.09684
2017-09-25 19:10:00+00:00,225.5681,14.3,13.44,47.84626,-54.09684
2017-09-25 19:20:00+00:00,216.3047,14.3,13.53,47.84626,-54.09684
2017-09-25 19:30:00+00:00,217.9598,14.3,13.53,47.84626,-54.09684
2017-09-25 19:40:00+00:00,213.1198,14.3,13.53,47.84626,-54.09684
2017-09-25 19:50:00+00:00,201.7098,14.3,13.53,47.84626,-54.09684
2017-09-25 20:00:00+00:00,200.8581,14.3,13.37,47.84626,-54.09684
2017-09-25 20:10:00+00:00,206.9381,14.3,13.29,47.84626,-54.09684
2017-09-25 20:20:00+00:00,201.6731,14.3,13.37,47.84626,-54.09684
2017-09-25 20:30:00+00:00,196.5814,14.34,13.29,47.84626,-54.09684
2017-09-25 20:40:00+00:00,202.2014,14.3,13.29,47.84626,-54.09684
2017-09-25 20:50:00+00:00,210.0247,14.31,13.29,47.84626,-54.09684
2017-09-25 21:00:00+00:00,209.5981,14.35,13.21,47.84626,-54.09684
2017-09-25 21:10:00+00:00,209.5098,14.36,13.13,47.84626,-54.09684
2017-09-25 21:20:00+00:00,216.8597,14.32,13.13,47.84626,-54.09684
2017-09-25 21:30:00+00:00,219.1864,14.33,13.13,47.84626,-54.09684
2017-09-25 21:40:00+00:00,218.4281,14.3,13.13,47.84626,-54.09684
2017-09-25 21:50:00+00:00,224.0748,14.3,13.13,47.84626,-54.09684
2017-09-25 22:00:00+00:00,234.6248,14.33,13.05,47.84626,-54.09684
2017-09-25 22:10:00+00:00,236.4847,14.35,13.05,47.84626,-54.09684
2017-09-25 22:20:00+00:00,231.1848,14.35,13.05,47.84626,-54.09684
2017-09-25 22:30:00+00:00,238.7964,14.34,13.05,47.84626,-54.09684
2017-09-25 22:40:00+00:00,250.1398,14.37,13.05,47.84626,-54.09684
2017-09-25 22:50:00+00:00,247.1881,14.34,13.05,47.84626,-54.09684
2017-09-25 23:00:00+00:00,244.1898,14.3,13.05,47.84626,-54.09684
2017-09-25 23:10:00+00:00,250.6664,14.3,12.97,47.84626,-54.09684
2017-09-25 23:20:00+00:00,258.2364,14.3,13.05,47.84626,-54.09684
2017-09-25 23:30:00+00:00,259.4098,14.28,13.05,47.84626,-54.09684
2017-09-25 23:40:00+00:00,259.9897,14.26,13.05,47.84626,-54.09684
2017-09-25 23:50:00+00:00,264.7447,14.27,13.05,47.84626,-54.09684
